Year,Month,Day,Hour,Minute,Value (Times are PST for temperature in C)
2017,09,06,00,00,21.00
2017,09,06,00,01,21.10
2017,09,06,00,02,21.10
2017,09,06,00,03,21.10
2017,09,06,00,04,21.10
2017,09,06,00,05,21.00
2017,09,06,00,06,21.00
2017,09,06,00,07,21.00
2017,09,06,00,08,20.90
2017,09,06,00,09,20.90
2017,09,06,00,10,20.90
2017,09,06,00,11,20.90
2017,09,06,00,12,20.80
2017,09,06,00,13,20.80
2017,09,06,00,14,20.80
2017,09,06,00,15,20.70
2017,09,06,00,16,20.70
2017,09,06,00,17,20.70
2017,09,06,00,18,20.70
2017,09,06,00,19,20.70
2017,09,06,00,20,20.70
2017,09,06,00,21,20.70
2017,09,06,00,22,20.70
2017,09,06,00,23,20.60
2017,09,06,00,24,20.60
2017,09,06,00,25,20.60
2017,09,06,00,26,20.60
2017,09,06,00,27,20.60
2017,09,06,00,28,20.60
2017,09,06,00,29,20.50
2017,09,06,00,30,20.50
2017,09,06,00,31,20.50
2017,09,06,00,32,20.40
2017,09,06,00,33,20.40
2017,09,06,00,34,20.40
2017,09,06,00,35,20.30
2017,09,06,00,36,20.30
2017,09,06,00,37,20.30
2017,09,06,00,38,20.30
2017,09,06,00,39,20.30
2017,09,06,00,40,20.30
2017,09,06,00,41,20.30
2017,09,06,00,42,20.30
2017,09,06,00,43,20.20
2017,09,06,00,44,20.20
2017,09,06,00,45,20.20
2017,09,06,00,46,20.20
2017,09,06,00,47,20.20
2017,09,06,00,48,20.10
2017,09,06,00,49,20.10
2017,09,06,00,50,20.10
2017,09,06,00,51,20.10
2017,09,06,00,52,20.00
2017,09,06,00,53,20.00
2017,09,06,00,54,19.90
2017,09,06,00,55,19.90
2017,09,06,00,56,19.90
2017,09,06,00,57,19.90
2017,09,06,00,58,19.80
2017,09,06,00,59,19.80
2017,09,06,01,00,19.80
2017,09,06,01,01,19.80
2017,09,06,01,02,19.80
2017,09,06,01,03,19.80
2017,09,06,01,04,19.70
2017,09,06,01,05,19.70
2017,09,06,01,06,19.80
2017,09,06,01,07,19.80
2017,09,06,01,08,19.80
2017,09,06,01,09,19.80
2017,09,06,01,10,19.80
2017,09,06,01,11,19.80
2017,09,06,01,12,19.80
2017,09,06,01,13,19.80
2017,09,06,01,14,19.70
2017,09,06,01,15,19.70
2017,09,06,01,16,19.70
2017,09,06,01,17,19.70
2017,09,06,01,18,19.70
2017,09,06,01,19,19.60
2017,09,06,01,20,19.60
2017,09,06,01,21,19.70
2017,09,06,01,22,19.70
2017,09,06,01,23,19.70
2017,09,06,01,24,19.80
2017,09,06,01,25,19.80
2017,09,06,01,26,19.80
2017,09,06,01,27,19.80
2017,09,06,01,28,19.90
2017,09,06,01,29,20.00
2017,09,06,01,30,20.00
2017,09,06,01,31,20.10
2017,09,06,01,32,20.00
2017,09,06,01,33,20.00
2017,09,06,01,34,20.00
2017,09,06,01,35,20.00
2017,09,06,01,36,20.00
2017,09,06,01,37,20.00
2017,09,06,01,38,20.00
2017,09,06,01,39,20.00
2017,09,06,01,40,20.00
2017,09,06,01,41,20.00
2017,09,06,01,42,19.90
2017,09,06,01,43,20.00
2017,09,06,01,44,20.00
2017,09,06,01,45,20.00
2017,09,06,01,46,20.10
2017,09,06,01,47,20.10
2017,09,06,01,48,20.10
2017,09,06,01,49,20.10
2017,09,06,01,50,20.10
2017,09,06,01,51,20.10
2017,09,06,01,52,20.10
2017,09,06,01,53,20.10
2017,09,06,01,54,20.00
2017,09,06,01,55,20.10
2017,09,06,01,56,20.00
2017,09,06,01,57,20.10
2017,09,06,01,58,20.10
2017,09,06,01,59,20.10
2017,09,06,02,00,20.10
2017,09,06,02,01,20.10
2017,09,06,02,02,20.10
2017,09,06,02,03,20.10
2017,09,06,02,04,20.10
2017,09,06,02,05,20.10
2017,09,06,02,06,20.00
2017,09,06,02,07,20.00
2017,09,06,02,08,20.00
2017,09,06,02,09,20.00
2017,09,06,02,10,20.00
2017,09,06,02,11,20.00
2017,09,06,02,12,20.00
2017,09,06,02,13,20.00
2017,09,06,02,14,20.00
2017,09,06,02,15,20.00
2017,09,06,02,16,20.00
2017,09,06,02,17,20.00
2017,09,06,02,18,20.10
2017,09,06,02,19,20.00
2017,09,06,02,20,20.10
2017,09,06,02,21,20.10
2017,09,06,02,22,20.10
2017,09,06,02,23,20.10
2017,09,06,02,24,20.00
2017,09,06,02,25,20.00
2017,09,06,02,26,20.10
2017,09,06,02,27,20.10
2017,09,06,02,28,20.10
2017,09,06,02,29,20.10
2017,09,06,02,30,20.00
2017,09,06,02,31,20.00
2017,09,06,02,32,20.00
2017,09,06,02,33,20.00
2017,09,06,02,34,20.10
2017,09,06,02,35,20.10
2017,09,06,02,36,20.10
2017,09,06,02,37,20.10
2017,09,06,02,38,20.10
2017,09,06,02,39,20.10
2017,09,06,02,40,20.10
2017,09,06,02,41,20.10
2017,09,06,02,42,20.10
2017,09,06,02,43,20.10
2017,09,06,02,44,20.20
2017,09,06,02,45,20.20
2017,09,06,02,46,20.20
2017,09,06,02,47,20.20
2017,09,06,02,48,20.20
2017,09,06,02,49,20.20
2017,09,06,02,50,20.20
2017,09,06,02,51,20.20
2017,09,06,02,52,20.20
2017,09,06,02,53,20.20
2017,09,06,02,54,20.20
2017,09,06,02,55,20.20
2017,09,06,02,56,20.20
2017,09,06,02,57,20.20
2017,09,06,02,58,20.20
2017,09,06,02,59,20.20
2017,09,06,03,00,20.20
2017,09,06,03,01,20.20
2017,09,06,03,02,20.20
2017,09,06,03,03,20.20
2017,09,06,03,04,20.20
2017,09,06,03,05,20.20
2017,09,06,03,06,20.20
2017,09,06,03,07,20.20
2017,09,06,03,08,20.20
2017,09,06,03,09,20.20
2017,09,06,03,10,20.20
2017,09,06,03,11,20.30
2017,09,06,03,12,20.30
2017,09,06,03,13,20.30
2017,09,06,03,14,20.30
2017,09,06,03,15,20.30
2017,09,06,03,16,20.30
2017,09,06,03,17,20.30
2017,09,06,03,18,20.30
2017,09,06,03,19,20.30
2017,09,06,03,20,20.30
2017,09,06,03,21,20.20
2017,09,06,03,22,20.20
2017,09,06,03,23,20.20
2017,09,06,03,24,20.20
2017,09,06,03,25,20.20
2017,09,06,03,26,20.20
2017,09,06,03,27,20.20
2017,09,06,03,28,20.20
2017,09,06,03,29,20.10
2017,09,06,03,30,20.10
2017,09,06,03,31,20.10
2017,09,06,03,32,20.10
2017,09,06,03,33,20.10
2017,09,06,03,34,20.10
2017,09,06,03,35,20.10
2017,09,06,03,36,20.10
2017,09,06,03,37,20.10
2017,09,06,03,38,20.10
2017,09,06,03,39,20.10
2017,09,06,03,40,20.10
2017,09,06,03,41,20.10
2017,09,06,03,42,20.10
2017,09,06,03,43,20.10
2017,09,06,03,44,20.10
2017,09,06,03,45,20.10
2017,09,06,03,46,20.00
2017,09,06,03,47,20.00
2017,09,06,03,48,20.00
2017,09,06,03,49,20.00
2017,09,06,03,50,20.10
2017,09,06,03,51,20.10
2017,09,06,03,52,20.10
2017,09,06,03,53,20.00
2017,09,06,03,54,20.00
2017,09,06,03,55,20.00
2017,09,06,03,56,20.00
2017,09,06,03,57,20.00
2017,09,06,03,58,20.00
2017,09,06,03,59,20.00
2017,09,06,04,00,20.00
2017,09,06,04,01,20.00
2017,09,06,04,02,20.00
2017,09,06,04,03,20.00
2017,09,06,04,04,20.00
2017,09,06,04,05,20.00
2017,09,06,04,06,20.00
2017,09,06,04,07,20.00
2017,09,06,04,08,20.00
2017,09,06,04,09,20.00
2017,09,06,04,10,19.90
2017,09,06,04,11,19.90
2017,09,06,04,12,19.90
2017,09,06,04,13,19.90
2017,09,06,04,14,19.90
2017,09,06,04,15,19.90
2017,09,06,04,16,19.90
2017,09,06,04,17,19.90
2017,09,06,04,18,19.90
2017,09,06,04,19,19.90
2017,09,06,04,20,19.90
2017,09,06,04,21,19.90
2017,09,06,04,22,19.90
2017,09,06,04,23,19.90
2017,09,06,04,24,19.90
2017,09,06,04,25,19.90
2017,09,06,04,26,19.90
2017,09,06,04,27,19.90
2017,09,06,04,28,19.90
2017,09,06,04,29,20.00
2017,09,06,04,30,20.00
2017,09,06,04,31,20.00
2017,09,06,04,32,20.00
2017,09,06,04,33,20.00
2017,09,06,04,34,20.10
2017,09,06,04,35,20.10
2017,09,06,04,36,20.10
2017,09,06,04,37,20.10
2017,09,06,04,38,20.10
2017,09,06,04,39,20.10
2017,09,06,04,40,20.10
2017,09,06,04,41,20.10
2017,09,06,04,42,20.10
2017,09,06,04,43,20.10
2017,09,06,04,44,20.10
2017,09,06,04,45,20.10
2017,09,06,04,46,20.10
2017,09,06,04,47,20.10
2017,09,06,04,48,20.10
2017,09,06,04,49,20.10
2017,09,06,04,50,20.10
2017,09,06,04,51,20.10
2017,09,06,04,52,20.00
2017,09,06,04,53,20.00
2017,09,06,04,54,20.00
2017,09,06,04,55,20.00
2017,09,06,04,56,19.90
2017,09,06,04,57,19.90
2017,09,06,04,58,19.90
2017,09,06,04,59,19.90
2017,09,06,05,00,19.90
2017,09,06,05,01,19.90
2017,09,06,05,02,19.80
2017,09,06,05,03,19.80
2017,09,06,05,04,19.80
2017,09,06,05,05,19.80
2017,09,06,05,06,19.80
2017,09,06,05,07,19.80
2017,09,06,05,08,19.80
2017,09,06,05,09,19.80
2017,09,06,05,10,19.80
2017,09,06,05,11,19.80
2017,09,06,05,12,19.80
2017,09,06,05,13,19.80
2017,09,06,05,14,19.70
2017,09,06,05,15,19.70
2017,09,06,05,16,19.70
2017,09,06,05,17,19.70
2017,09,06,05,18,19.70
2017,09,06,05,19,19.70
2017,09,06,05,20,19.70
2017,09,06,05,21,19.80
2017,09,06,05,22,19.80
2017,09,06,05,23,19.70
2017,09,06,05,24,19.70
2017,09,06,05,25,19.70
2017,09,06,05,26,19.70
2017,09,06,05,27,19.70
2017,09,06,05,28,19.60
2017,09,06,05,29,19.60
2017,09,06,05,30,19.60
2017,09,06,05,31,19.60
2017,09,06,05,32,19.60
2017,09,06,05,33,19.60
2017,09,06,05,34,19.60
2017,09,06,05,35,19.50
2017,09,06,05,36,19.50
2017,09,06,05,37,19.50
2017,09,06,05,38,19.40
2017,09,06,05,39,19.40
2017,09,06,05,40,19.40
2017,09,06,05,41,19.40
2017,09,06,05,42,19.40
2017,09,06,05,43,19.40
2017,09,06,05,44,19.40
2017,09,06,05,45,19.40
2017,09,06,05,46,19.40
2017,09,06,05,47,19.40
2017,09,06,05,48,19.40
2017,09,06,05,49,19.40
2017,09,06,05,50,19.40
2017,09,06,05,51,19.40
2017,09,06,05,52,19.40
2017,09,06,05,53,19.40
2017,09,06,05,54,19.40
2017,09,06,05,55,19.40
2017,09,06,05,56,19.40
2017,09,06,05,57,19.40
2017,09,06,05,58,19.40
2017,09,06,05,59,19.30
2017,09,06,06,00,19.30
2017,09,06,06,01,19.30
2017,09,06,06,02,19.30
2017,09,06,06,03,19.30
2017,09,06,06,04,19.30
2017,09,06,06,05,19.30
2017,09,06,06,06,19.30
2017,09,06,06,07,19.30
2017,09,06,06,08,19.30
2017,09,06,06,09,19.30
2017,09,06,06,10,19.30
2017,09,06,06,11,19.30
2017,09,06,06,12,19.30
2017,09,06,06,13,19.30
2017,09,06,06,14,19.30
2017,09,06,06,15,19.30
2017,09,06,06,16,19.20
2017,09,06,06,17,19.20
2017,09,06,06,18,19.20
2017,09,06,06,19,19.20
2017,09,06,06,20,19.20
2017,09,06,06,21,19.20
2017,09,06,06,22,19.20
2017,09,06,06,23,19.20
2017,09,06,06,24,19.20
2017,09,06,06,25,19.10
2017,09,06,06,26,19.10
2017,09,06,06,27,19.10
2017,09,06,06,28,19.10
2017,09,06,06,29,19.10
2017,09,06,06,30,19.10
2017,09,06,06,31,19.20
2017,09,06,06,32,19.20
2017,09,06,06,33,19.20
2017,09,06,06,34,19.20
2017,09,06,06,35,19.20
2017,09,06,06,36,19.20
2017,09,06,06,37,19.20
2017,09,06,06,38,19.20
2017,09,06,06,39,19.20
2017,09,06,06,40,19.20
2017,09,06,06,41,19.20
2017,09,06,06,42,19.20
2017,09,06,06,43,19.20
2017,09,06,06,44,19.20
2017,09,06,06,45,19.20
2017,09,06,06,46,19.20
2017,09,06,06,47,19.20
2017,09,06,06,48,19.20
2017,09,06,06,49,19.20
2017,09,06,06,50,19.20
2017,09,06,06,51,19.20
2017,09,06,06,52,19.20
2017,09,06,06,53,19.20
2017,09,06,06,54,19.20
2017,09,06,06,55,19.20
2017,09,06,06,56,19.20
2017,09,06,06,57,19.10
2017,09,06,06,58,19.10
2017,09,06,06,59,19.10
2017,09,06,07,00,19.10
2017,09,06,07,01,19.10
2017,09,06,07,02,19.10
2017,09,06,07,03,19.10
2017,09,06,07,04,19.10
2017,09,06,07,05,19.10
2017,09,06,07,06,19.10
2017,09,06,07,07,19.10
2017,09,06,07,08,19.10
2017,09,06,07,09,19.10
2017,09,06,07,10,19.10
2017,09,06,07,11,19.00
2017,09,06,07,12,19.00
2017,09,06,07,13,19.00
2017,09,06,07,14,19.00
2017,09,06,07,15,19.00
2017,09,06,07,16,19.00
2017,09,06,07,17,19.00
2017,09,06,07,18,19.00
2017,09,06,07,19,18.90
2017,09,06,07,20,18.90
2017,09,06,07,21,18.90
2017,09,06,07,22,18.90
2017,09,06,07,23,18.90
2017,09,06,07,24,18.90
2017,09,06,07,25,18.90
2017,09,06,07,26,18.90
2017,09,06,07,27,18.90
2017,09,06,07,28,18.90
2017,09,06,07,29,18.80
2017,09,06,07,30,18.80
2017,09,06,07,31,18.80
2017,09,06,07,32,18.80
2017,09,06,07,33,18.80
2017,09,06,07,34,18.80
2017,09,06,07,35,18.80
2017,09,06,07,36,18.80
2017,09,06,07,37,18.80
2017,09,06,07,38,18.80
2017,09,06,07,39,18.80
2017,09,06,07,40,18.80
2017,09,06,07,41,18.80
2017,09,06,07,42,18.80
2017,09,06,07,43,18.80
2017,09,06,07,44,18.80
2017,09,06,07,45,18.90
2017,09,06,07,46,18.90
2017,09,06,07,47,18.90
2017,09,06,07,48,18.90
2017,09,06,07,49,18.90
2017,09,06,07,50,18.90
2017,09,06,07,51,18.90
2017,09,06,07,52,18.90
2017,09,06,07,53,18.90
2017,09,06,07,54,19.00
2017,09,06,07,55,19.00
2017,09,06,07,56,19.10
2017,09,06,07,57,19.10
2017,09,06,07,58,19.20
2017,09,06,07,59,19.20
2017,09,06,08,00,19.20
2017,09,06,08,01,19.20
2017,09,06,08,02,19.20
2017,09,06,08,03,19.20
2017,09,06,08,04,19.20
2017,09,06,08,05,19.30
2017,09,06,08,06,19.30
2017,09,06,08,07,19.30
2017,09,06,08,08,19.30
2017,09,06,08,09,19.30
2017,09,06,08,10,19.30
2017,09,06,08,11,19.30
2017,09,06,08,12,19.30
2017,09,06,08,13,19.30
2017,09,06,08,14,19.30
2017,09,06,08,15,19.30
2017,09,06,08,16,19.40
2017,09,06,08,17,19.40
2017,09,06,08,18,19.40
2017,09,06,08,19,19.40
2017,09,06,08,20,19.40
2017,09,06,08,21,19.50
2017,09,06,08,22,19.60
2017,09,06,08,23,19.60
2017,09,06,08,24,19.60
2017,09,06,08,25,19.60
2017,09,06,08,26,19.60
2017,09,06,08,27,19.70
2017,09,06,08,28,19.70
2017,09,06,08,29,19.70
2017,09,06,08,30,19.70
2017,09,06,08,31,19.70
2017,09,06,08,32,19.80
2017,09,06,08,33,19.80
2017,09,06,08,34,19.80
2017,09,06,08,35,19.80
2017,09,06,08,36,19.90
2017,09,06,08,37,19.90
2017,09,06,08,38,19.90
2017,09,06,08,39,19.90
2017,09,06,08,40,20.00
2017,09,06,08,41,20.00
2017,09,06,08,42,20.10
2017,09,06,08,43,20.10
2017,09,06,08,44,20.20
2017,09,06,08,45,20.20
2017,09,06,08,46,20.30
2017,09,06,08,47,20.30
2017,09,06,08,48,20.40
2017,09,06,08,49,20.40
2017,09,06,08,50,20.50
2017,09,06,08,51,20.50
2017,09,06,08,52,20.50
2017,09,06,08,53,20.50
2017,09,06,08,54,20.60
2017,09,06,08,55,20.60
2017,09,06,08,56,20.60
2017,09,06,08,57,20.60
2017,09,06,08,58,20.70
2017,09,06,08,59,20.70
2017,09,06,09,00,20.80
2017,09,06,09,01,20.80
2017,09,06,09,02,20.90
2017,09,06,09,03,20.90
2017,09,06,09,04,21.00
2017,09,06,09,05,21.00
2017,09,06,09,06,21.10
2017,09,06,09,07,21.20
2017,09,06,09,08,21.20
2017,09,06,09,09,21.30
2017,09,06,09,10,21.30
2017,09,06,09,11,21.40
2017,09,06,09,12,21.40
2017,09,06,09,13,21.50
2017,09,06,09,14,21.60
2017,09,06,09,15,21.60
2017,09,06,09,16,21.60
2017,09,06,09,17,21.70
2017,09,06,09,18,21.70
2017,09,06,09,19,21.70
2017,09,06,09,20,21.70
2017,09,06,09,21,21.80
2017,09,06,09,22,21.80
2017,09,06,09,23,21.80
2017,09,06,09,24,21.80
2017,09,06,09,25,21.80
2017,09,06,09,26,21.80
2017,09,06,09,27,21.80
2017,09,06,09,28,21.80
2017,09,06,09,29,21.80
2017,09,06,09,30,21.80
2017,09,06,09,31,21.80
2017,09,06,09,32,21.80
2017,09,06,09,33,21.80
2017,09,06,09,34,21.80
2017,09,06,09,35,21.80
2017,09,06,09,36,21.80
2017,09,06,09,37,21.80
2017,09,06,09,38,21.80
2017,09,06,09,39,21.80
2017,09,06,09,40,21.80
2017,09,06,09,41,21.80
2017,09,06,09,42,21.80
2017,09,06,09,43,21.80
2017,09,06,09,44,21.80
2017,09,06,09,45,21.80
2017,09,06,09,46,21.80
2017,09,06,09,47,21.80
2017,09,06,09,48,21.80
2017,09,06,09,49,21.80
2017,09,06,09,50,21.90
2017,09,06,09,51,21.90
2017,09,06,09,52,21.90
2017,09,06,09,53,21.90
2017,09,06,09,54,21.90
2017,09,06,09,55,21.80
2017,09,06,09,56,21.80
2017,09,06,09,57,21.80
2017,09,06,09,58,21.90
2017,09,06,09,59,21.90
2017,09,06,10,00,21.90
2017,09,06,10,01,21.90
2017,09,06,10,02,22.00
2017,09,06,10,03,22.00
2017,09,06,10,04,22.10
2017,09,06,10,05,22.10
2017,09,06,10,06,22.20
2017,09,06,10,07,22.20
2017,09,06,10,08,22.20
2017,09,06,10,09,22.20
2017,09,06,10,10,22.30
2017,09,06,10,11,22.30
2017,09,06,10,12,22.30
2017,09,06,10,13,22.30
2017,09,06,10,14,22.30
2017,09,06,10,15,22.40
2017,09,06,10,16,22.40
2017,09,06,10,17,22.40
2017,09,06,10,18,22.50
2017,09,06,10,19,22.50
2017,09,06,10,20,22.60
2017,09,06,10,21,22.60
2017,09,06,10,22,22.70
2017,09,06,10,23,22.70
2017,09,06,10,24,22.80
2017,09,06,10,25,22.80
2017,09,06,10,26,22.90
2017,09,06,10,27,22.90
2017,09,06,10,28,22.90
2017,09,06,10,29,23.00
2017,09,06,10,30,23.10
2017,09,06,10,31,23.10
2017,09,06,10,32,23.10
2017,09,06,10,33,23.20
2017,09,06,10,34,23.30
2017,09,06,10,35,23.30
2017,09,06,10,36,23.40
2017,09,06,10,37,23.50
2017,09,06,10,38,23.60
2017,09,06,10,39,23.70
2017,09,06,10,40,23.70
2017,09,06,10,41,23.70
2017,09,06,10,42,23.80
2017,09,06,10,43,23.80
2017,09,06,10,44,23.80
2017,09,06,10,45,23.80
2017,09,06,10,46,23.80
2017,09,06,10,47,23.80
2017,09,06,10,48,23.80
2017,09,06,10,49,23.80
2017,09,06,10,50,23.80
2017,09,06,10,51,23.80
2017,09,06,10,52,23.70
2017,09,06,10,53,23.70
2017,09,06,10,54,23.70
2017,09,06,10,55,23.70
2017,09,06,10,56,23.60
2017,09,06,10,57,23.50
2017,09,06,10,58,23.50
2017,09,06,10,59,23.40
2017,09,06,11,00,23.30
2017,09,06,11,01,23.20
2017,09,06,11,02,23.10
2017,09,06,11,03,23.10
2017,09,06,11,04,23.00
2017,09,06,11,05,22.90
2017,09,06,11,06,22.90
2017,09,06,11,07,23.00
2017,09,06,11,08,23.00
2017,09,06,11,09,22.90
2017,09,06,11,10,22.90
2017,09,06,11,11,22.90
2017,09,06,11,12,22.90
2017,09,06,11,13,22.90
2017,09,06,11,14,22.80
2017,09,06,11,15,22.80
2017,09,06,11,16,22.90
2017,09,06,11,17,22.90
2017,09,06,11,18,23.00
2017,09,06,11,19,23.10
2017,09,06,11,20,23.10
2017,09,06,11,21,23.20
2017,09,06,11,22,23.20
2017,09,06,11,23,23.30
2017,09,06,11,24,23.30
2017,09,06,11,25,23.30
2017,09,06,11,26,23.40
2017,09,06,11,27,23.40
2017,09,06,11,28,23.50
2017,09,06,11,29,23.60
2017,09,06,11,30,23.60
2017,09,06,11,31,23.70
2017,09,06,11,32,23.70
2017,09,06,11,33,23.70
2017,09,06,11,34,23.70
2017,09,06,11,35,23.70
2017,09,06,11,36,23.70
2017,09,06,11,37,23.70
2017,09,06,11,38,23.70
2017,09,06,11,39,23.70
2017,09,06,11,40,23.70
2017,09,06,11,41,23.70
2017,09,06,11,42,23.70
2017,09,06,11,43,23.70
2017,09,06,11,44,23.70
2017,09,06,11,45,23.70
2017,09,06,11,46,23.80
2017,09,06,11,47,23.80
2017,09,06,11,48,23.90
2017,09,06,11,49,23.90
2017,09,06,11,50,24.00
2017,09,06,11,51,24.00
2017,09,06,11,52,24.00
2017,09,06,11,53,24.00
2017,09,06,11,54,24.00
2017,09,06,11,55,24.00
2017,09,06,11,56,24.00
2017,09,06,11,57,24.00
2017,09,06,11,58,23.90
2017,09,06,11,59,23.90
2017,09,06,12,00,23.90
2017,09,06,12,01,23.90
2017,09,06,12,02,23.90
2017,09,06,12,03,23.90
2017,09,06,12,04,23.90
2017,09,06,12,05,23.90
2017,09,06,12,06,23.90
2017,09,06,12,07,23.90
2017,09,06,12,08,24.00
2017,09,06,12,09,23.90
2017,09,06,12,10,23.90
2017,09,06,12,11,23.90
2017,09,06,12,12,23.80
2017,09,06,12,13,23.80
2017,09,06,12,14,23.80
2017,09,06,12,15,23.80
2017,09,06,12,16,23.80
2017,09,06,12,17,23.80
2017,09,06,12,18,23.80
2017,09,06,12,19,23.80
2017,09,06,12,20,23.90
2017,09,06,12,21,24.00
2017,09,06,12,22,24.00
2017,09,06,12,23,24.10
2017,09,06,12,24,24.10
2017,09,06,12,25,24.10
2017,09,06,12,26,24.10
2017,09,06,12,27,24.10
2017,09,06,12,28,24.10
2017,09,06,12,29,24.20
2017,09,06,12,30,24.20
2017,09,06,12,31,24.30
2017,09,06,12,32,24.30
2017,09,06,12,33,24.30
2017,09,06,12,34,24.30
2017,09,06,12,35,24.20
2017,09,06,12,36,24.20
2017,09,06,12,37,24.20
2017,09,06,12,38,24.20
2017,09,06,12,39,24.10
2017,09,06,12,40,24.00
2017,09,06,12,41,23.90
2017,09,06,12,42,23.90
2017,09,06,12,43,23.80
2017,09,06,12,44,23.70
2017,09,06,12,45,23.70
2017,09,06,12,46,23.70
2017,09,06,12,47,23.70
2017,09,06,12,48,23.70
2017,09,06,12,49,23.80
2017,09,06,12,50,23.80
2017,09,06,12,51,23.80
2017,09,06,12,52,23.80
2017,09,06,12,53,23.80
2017,09,06,12,54,23.80
2017,09,06,12,55,23.70
2017,09,06,12,56,23.60
2017,09,06,12,57,23.60
2017,09,06,12,58,23.60
2017,09,06,12,59,23.60
2017,09,06,13,00,23.50
2017,09,06,13,01,23.50
2017,09,06,13,02,23.50
2017,09,06,13,03,23.50
2017,09,06,13,04,23.60
2017,09,06,13,05,23.60
2017,09,06,13,06,23.60
2017,09,06,13,07,23.60
2017,09,06,13,08,23.60
2017,09,06,13,09,23.70
2017,09,06,13,10,23.70
2017,09,06,13,11,23.70
2017,09,06,13,12,23.70
2017,09,06,13,13,23.70
2017,09,06,13,14,23.70
2017,09,06,13,15,23.70
2017,09,06,13,16,23.60
2017,09,06,13,17,23.60
2017,09,06,13,18,23.60
2017,09,06,13,19,23.60
2017,09,06,13,20,23.60
2017,09,06,13,21,23.70
2017,09,06,13,22,23.70
2017,09,06,13,23,23.80
2017,09,06,13,24,23.80
2017,09,06,13,25,23.90
2017,09,06,13,26,24.00
2017,09,06,13,27,24.00
2017,09,06,13,28,24.10
2017,09,06,13,29,24.10
2017,09,06,13,30,24.20
2017,09,06,13,31,24.20
2017,09,06,13,32,24.20
2017,09,06,13,33,24.20
2017,09,06,13,34,24.10
2017,09,06,13,35,24.00
2017,09,06,13,36,23.90
2017,09,06,13,37,23.80
2017,09,06,13,38,23.80
2017,09,06,13,39,23.80
2017,09,06,13,40,23.80
2017,09,06,13,41,23.80
2017,09,06,13,42,23.90
2017,09,06,13,43,24.00
2017,09,06,13,44,24.00
2017,09,06,13,45,24.10
2017,09,06,13,46,24.10
2017,09,06,13,47,24.10
2017,09,06,13,48,24.10
2017,09,06,13,49,24.00
2017,09,06,13,50,24.00
2017,09,06,13,51,24.00
2017,09,06,13,52,24.00
2017,09,06,13,53,24.00
2017,09,06,13,54,24.00
2017,09,06,13,55,24.10
2017,09,06,13,56,24.10
2017,09,06,13,57,24.10
2017,09,06,13,58,24.10
2017,09,06,13,59,24.10
2017,09,06,14,00,24.10
2017,09,06,14,01,24.10
2017,09,06,14,02,24.00
2017,09,06,14,03,24.00
2017,09,06,14,04,23.90
2017,09,06,14,05,23.80
2017,09,06,14,06,23.80
2017,09,06,14,07,23.70
2017,09,06,14,08,23.60
2017,09,06,14,09,23.60
2017,09,06,14,10,23.50
2017,09,06,14,11,23.40
2017,09,06,14,12,23.40
2017,09,06,14,13,23.40
2017,09,06,14,14,23.40
2017,09,06,14,15,23.50
2017,09,06,14,16,23.50
2017,09,06,14,17,23.60
2017,09,06,14,18,23.70
2017,09,06,14,19,23.80
2017,09,06,14,20,23.90
2017,09,06,14,21,24.00
2017,09,06,14,22,24.00
2017,09,06,14,23,24.00
2017,09,06,14,24,24.00
2017,09,06,14,25,24.00
2017,09,06,14,26,24.00
2017,09,06,14,27,24.10
2017,09,06,14,28,24.10
2017,09,06,14,29,24.10
2017,09,06,14,30,24.10
2017,09,06,14,31,24.10
2017,09,06,14,32,24.10
2017,09,06,14,33,24.10
2017,09,06,14,34,24.10
2017,09,06,14,35,24.10
2017,09,06,14,36,24.20
2017,09,06,14,37,24.20
2017,09,06,14,38,24.20
2017,09,06,14,39,24.30
2017,09,06,14,40,24.30
2017,09,06,14,41,24.40
2017,09,06,14,42,24.40
2017,09,06,14,43,24.40
2017,09,06,14,44,24.40
2017,09,06,14,45,24.40
2017,09,06,14,46,24.40
2017,09,06,14,47,24.30
2017,09,06,14,48,24.30
2017,09,06,14,49,24.30
2017,09,06,14,50,24.30
2017,09,06,14,51,24.30
2017,09,06,14,52,24.30
2017,09,06,14,53,24.40
2017,09,06,14,54,24.40
2017,09,06,14,55,24.40
2017,09,06,14,56,24.40
2017,09,06,14,57,24.40
2017,09,06,14,58,24.40
2017,09,06,14,59,24.40
2017,09,06,15,00,24.40
2017,09,06,15,01,24.40
2017,09,06,15,02,24.50
2017,09,06,15,03,24.50
2017,09,06,15,04,24.50
2017,09,06,15,05,24.50
2017,09,06,15,06,24.50
2017,09,06,15,07,24.50
2017,09,06,15,08,24.60
2017,09,06,15,09,24.60
2017,09,06,15,10,24.50
2017,09,06,15,11,24.60
2017,09,06,15,12,24.60
2017,09,06,15,13,24.50
2017,09,06,15,14,24.40
2017,09,06,15,15,24.30
2017,09,06,15,16,24.20
2017,09,06,15,17,24.10
2017,09,06,15,18,24.00
2017,09,06,15,19,23.90
2017,09,06,15,20,23.90
2017,09,06,15,21,23.80
2017,09,06,15,22,23.70
2017,09,06,15,23,23.70
2017,09,06,15,24,23.60
2017,09,06,15,25,23.60
2017,09,06,15,26,23.60
2017,09,06,15,27,23.50
2017,09,06,15,28,23.60
2017,09,06,15,29,23.50
2017,09,06,15,30,23.50
2017,09,06,15,31,23.40
2017,09,06,15,32,23.40
2017,09,06,15,33,23.40
2017,09,06,15,34,23.40
2017,09,06,15,35,23.40
2017,09,06,15,36,23.40
2017,09,06,15,37,23.40
2017,09,06,15,38,23.40
2017,09,06,15,39,23.50
2017,09,06,15,40,23.50
2017,09,06,15,41,23.50
2017,09,06,15,42,23.50
2017,09,06,15,43,23.50
2017,09,06,15,44,23.40
2017,09,06,15,45,23.40
2017,09,06,15,46,23.40
2017,09,06,15,47,23.40
2017,09,06,15,48,23.30
2017,09,06,15,49,23.30
2017,09,06,15,50,23.30
2017,09,06,15,51,23.20
2017,09,06,15,52,23.20
2017,09,06,15,53,23.10
2017,09,06,15,54,23.10
2017,09,06,15,55,23.10
2017,09,06,15,56,23.00
2017,09,06,15,57,23.00
2017,09,06,15,58,22.90
2017,09,06,15,59,22.90
2017,09,06,16,00,22.90
2017,09,06,16,01,22.80
2017,09,06,16,02,22.80
2017,09,06,16,03,22.80
2017,09,06,16,04,22.80
2017,09,06,16,05,22.80
2017,09,06,16,06,22.80
2017,09,06,16,07,22.70
2017,09,06,16,08,22.70
2017,09,06,16,09,22.70
2017,09,06,16,10,22.70
2017,09,06,16,11,22.70
2017,09,06,16,12,22.70
2017,09,06,16,13,22.70
2017,09,06,16,14,22.80
2017,09,06,16,15,22.80
2017,09,06,16,16,22.80
2017,09,06,16,17,22.80
2017,09,06,16,18,22.80
2017,09,06,16,19,22.80
2017,09,06,16,20,22.80
2017,09,06,16,21,22.70
2017,09,06,16,22,22.60
2017,09,06,16,23,22.60
2017,09,06,16,24,22.50
2017,09,06,16,25,22.40
2017,09,06,16,26,22.30
2017,09,06,16,27,22.30
2017,09,06,16,28,22.20
2017,09,06,16,29,22.20
2017,09,06,16,30,22.10
2017,09,06,16,31,22.10
2017,09,06,16,32,22.10
2017,09,06,16,33,22.10
2017,09,06,16,34,22.10
2017,09,06,16,35,22.00
2017,09,06,16,36,22.00
2017,09,06,16,37,22.00
2017,09,06,16,38,22.00
2017,09,06,16,39,21.90
2017,09,06,16,40,21.90
2017,09,06,16,41,21.90
2017,09,06,16,42,22.00
2017,09,06,16,43,22.00
2017,09,06,16,44,22.00
2017,09,06,16,45,22.00
2017,09,06,16,46,22.10
2017,09,06,16,47,22.10
2017,09,06,16,48,22.10
2017,09,06,16,49,22.10
2017,09,06,16,50,22.10
2017,09,06,16,51,22.20
2017,09,06,16,52,22.20
2017,09,06,16,53,22.20
2017,09,06,16,54,22.20
2017,09,06,16,55,22.20
2017,09,06,16,56,22.20
2017,09,06,16,57,22.20
2017,09,06,16,58,22.10
2017,09,06,16,59,22.10
2017,09,06,17,00,22.00
2017,09,06,17,01,21.80
2017,09,06,17,02,21.70
2017,09,06,17,03,21.70
2017,09,06,17,04,21.60
2017,09,06,17,05,21.60
2017,09,06,17,06,21.60
2017,09,06,17,07,21.60
2017,09,06,17,08,21.60
2017,09,06,17,09,21.50
2017,09,06,17,10,21.50
2017,09,06,17,11,21.50
2017,09,06,17,12,21.50
2017,09,06,17,13,21.50
2017,09,06,17,14,21.50
2017,09,06,17,15,21.50
2017,09,06,17,16,21.50
2017,09,06,17,17,21.50
2017,09,06,17,18,21.50
2017,09,06,17,19,21.50